Location: Newark
(27.9675°N, 86.8869°E)
Time: 23:07:34
(UTC+00:00)

Transit 2A - Visible Passes

Search period start: 14 October 2019 00:00
Search period end: 24 October 2019 00:00
Orbit: 600 x 959 km, 66.7° (Epoch: 14 October)

Date Brightness Start Highest point End Pass type
(mag) Time Alt. Az. Time Alt. Az. Time Alt. Az.
14 Oct 8.1 13:31:39 10° S 13:33:00 16° SSE 13:33:00 16° SSE visible
15 Oct 7.6 12:58:27 10° SSE 13:01:21 20° SE 13:01:21 20° SE visible
15 Oct 8.5 14:40:35 10° SW 14:41:57 17° WSW 14:41:57 17° WSW visible
15 Oct 7.3 23:34:24 10° N 23:38:21 33° ENE 23:42:20 10° SE visible
16 Oct 7.7 12:25:58 10° SE 12:28:54 14° ESE 12:29:42 14° E visible
16 Oct 7.1 14:06:02 10° SW 14:10:18 44° WSW 14:10:18 44° WSW visible
16 Oct 8.1 23:00:53 10° N 23:04:09 21° ENE 23:07:27 10° ESE visible
17 Oct 6.0 13:31:47 10° SSW 13:37:38 88° WNW 13:38:35 62° NNE visible
17 Oct 8.5 22:27:56 10° NNE 22:29:54 13° ENE 22:31:51 10° E visible
18 Oct 6.1 12:57:48 10° S 13:03:33 60° ESE 13:06:46 24° NE visible
18 Oct 8.7 14:43:56 10° W 14:46:53 14° WNW 14:47:21 14° NW visible
18 Oct 5.5 23:34:46 10° NNW 23:39:03 71° WSW 23:43:29 10° SSE visible
19 Oct 6.6 12:24:09 10° S 12:29:29 38° ESE 12:34:23 10° NE visible
19 Oct 8.3 14:08:21 10° WSW 14:12:38 22° WNW 14:15:22 15° NNW visible
19 Oct 5.9 23:00:41 10° NNW 23:04:59 66° ENE 23:09:24 10° SSE visible
20 Oct 7.6 13:33:21 10° SW 13:38:27 33° WNW 13:43:07 10° N visible
20 Oct 6.9 22:27:39 15° N 22:30:52 37° ENE 22:34:59 10° SE visible
21 Oct 6.9 12:58:44 10° SW 13:04:18 51° WNW 13:09:22 10° NNE visible
21 Oct 7.7 21:55:51 22° NE 21:56:41 23° ENE 22:00:11 10° ESE visible
21 Oct 6.8 23:36:26 10° WNW 23:39:37 21° WSW 23:42:59 10° SSW visible
22 Oct 6.2 12:24:24 10° SSW 12:30:12 80° WNW 12:35:25 10° NNE visible
22 Oct 8.6 21:24:04 12° E 21:24:04 12° E 21:24:48 10° E visible
22 Oct 6.1 23:04:39 32° W 23:05:35 35° WSW 23:09:42 10° S visible
23 Oct 6.2 11:50:23 10° SSW 11:56:06 66° ESE 12:01:17 10° NNE visible
23 Oct 8.8 13:37:05 10° W 13:39:28 13° WNW 13:41:48 10° NNW visible
23 Oct 6.2 22:32:50 42° S 22:32:50 42° S 22:36:00 10° SSE visible
